Pagina principale
METAR-TAF:

METAR-TAF

Aeroporti :

Trevico, Italia

latitudine: 41-03N, longitudine: 015-14E, altezza: 1085 m

Osservazione

Il bollettino è stato emesso 1 ora e 11 minuti fa, alle 17:55 UTC
Vento 12 kt da ovest
Temperature 13°C
Umidità 88%
Pressione 1016 hPa
Visibilità 10 km o più
Nuvoloso ad un'altezza di 300 ft

METAR: LIRT 241755Z 28012KT 9999 BKN003 13/11 Q1016

Ora: 21:06 (19:06 UTC)


TAF: mancante

Osservazioni e previsioni meteorologiche di più di 4000 aeroporti (messaggi METAR e TAF).

Le stazioni disponibili sono rappresentate dai dischi gialli e rossi sulla carta.

Puntare il mouse per vedere il nome della stazione.

Clicca sopra per visualizzare le osservazioni e previsioni meteorologiche.

Per cambiare la mappa : fare clic sui pulsanti verdi con una croce nera per ingrandire, il pulsante verde con un trattino per diminuire, o sulla freccia verde per le mappe adiacenti.


METAR-TAF: